Location: Lower Kingswood
(51.2667°N, 0.2167°W)
Time: 12:12:45
(UTC+00:00)

NOSS 2-2 (E) - Pass Details

Date: 26 September 2023
Orbit: 410 x 1758 km, 63.3° (Epoch: 03 November)

Event Time Altitude Azimuth Distance (km) Brightness Sun altitude
Exits shadow 02:57:26 86° 27° (NNE) 754 3.8 -26.6°
Maximum altitude 02:57:28 87° 44° (NE) 755 3.8 -26.6°
Drops below altitude 10° 03:03:42 10° 136° (SE) 2,739 6.9 -25.8°
Sets 03:06:47 0° 137° (SE) 3,924 7.8 -25.4°
